Weather History for Hayward, WI

Change the Weather History Date:

Tuesday, April 9, 2013

  Actual Average Record
Temperature  
Mean Temperature 36 °F -  
Max Temperature 41 °F 49 °F 72 °F (2005)
Min Temperature 32 °F 32 °F 7 °F (1997)
Degree Days  
Heating Degree Days 30    
Moisture  
Dew Point 28 °F    
Average Humidity 75    
Maximum Humidity 93    
Minimum Humidity 46    
Precipitation  
Precipitation 0.00 in - - ()
Sea Level Pressure  
Sea Level Pressure 30.12 in    
Wind  
Wind Speed 4 mph (NE)    
Max Wind Speed 16 mph    
Max Gust Speed 25 mph    
Visibility 10 miles    
Events      
Averages and records for this station are not official NWS values.
T = Trace of Precipitation, MM = Missing Value Source: NWS Daily Summary

Daily Weather History Graph

Daily Weather History Graph

Search for Another Location

Airport:

Trip Planner

Search our weather history database for the weather conditions in past years. The results will help you decide how hot, cold, wet, or windy it might be!

Date:

Astronomy

Apr. 09, 2013 Rise Set
Actual Time 6:30 AM CDT 7:45 PM CDT
Civil Twilight 5:59 AM CDT 8:16 PM CDT
Nautical Twilight 5:22 AM CDT 8:53 PM CDT
Astronomical Twilight 4:42 AM CDT 9:33 PM CDT
Moon 5:54 AM CDT (4/9) 7:21 PM CDT (4/9)
Length of Visible Light 14h 16m
Length of Day
13h 15m
Waning Crescent, 1% of the Moon is Illuminated
Apr 9
Waning Crescent
Apr 10
New
Apr 18
First Quarter
Apr 25
Full
May 2
Last Quarter

Hourly Weather History & Observations

Time (CDT) Temp. Windchill Dew Point Humidity Pressure Visibility Wind Dir Wind Speed Gust Speed Precip Events Conditions
12:53 AM 36.0 °F - 34.0 °F 93% 30.10 in 7.0 mi Calm Calm - N/A   Overcast
1:21 AM 35.6 °F - 33.8 °F 93% 30.07 in 6.0 mi Calm Calm - N/A   Overcast
1:41 AM 35.6 °F - 33.8 °F 93% 30.07 in 9.0 mi Calm Calm - N/A   Overcast
1:53 AM 36.0 °F 33.3 °F 34.0 °F 93% 30.10 in 8.0 mi Variable 3.5 mph - N/A   Overcast
2:08 AM 35.6 °F - 33.8 °F 93% 30.06 in 8.0 mi Calm Calm - N/A   Overcast
2:53 AM 35.1 °F 32.2 °F 33.1 °F 92% 30.06 in 9.0 mi NNE 3.5 mph - N/A   Overcast
3:53 AM 34.0 °F 29.8 °F 32.0 °F 92% 30.06 in 10.0 mi Variable 4.6 mph - N/A   Overcast
4:18 AM 33.8 °F - 32.0 °F 93% 30.02 in 10.0 mi Calm Calm - N/A   Scattered Clouds
4:53 AM 33.1 °F - 30.9 °F 92% 30.11 in 10.0 mi Calm Calm - N/A   Overcast
5:07 AM 33.8 °F - 32.0 °F 93% 30.08 in 9.0 mi Calm Calm - N/A   Overcast
5:53 AM 34.0 °F - 32.0 °F 92% 30.13 in 10.0 mi Calm Calm - N/A   Overcast
6:13 AM 33.8 °F - 32.0 °F 93% 30.07 in 10.0 mi Calm Calm - N/A   Overcast
6:53 AM 34.0 °F - 32.0 °F 92% 30.13 in 10.0 mi Calm Calm - N/A   Overcast
7:53 AM 35.1 °F 30.1 °F 32.0 °F 89% 30.14 in 10.0 mi Variable 5.8 mph - N/A   Overcast
8:53 AM 36.0 °F 31.1 °F 32.0 °F 86% 30.14 in 10.0 mi Variable 5.8 mph - N/A   Overcast
9:03 AM 35.6 °F 29.9 °F 32.0 °F 87% 30.09 in 10.0 mi Variable 6.9 mph - N/A   Overcast
9:07 AM 35.6 °F 29.9 °F 30.2 °F 81% 30.09 in 10.0 mi Variable 6.9 mph - N/A   Overcast
9:53 AM 36.0 °F 29.6 °F 28.9 °F 76% 30.13 in 10.0 mi NNE 8.1 mph 18.4 mph N/A   Overcast
10:03 AM 37.4 °F 32.1 °F 30.2 °F 75% 30.08 in 10.0 mi NE 6.9 mph - N/A   Overcast
10:53 AM 37.0 °F 31.0 °F 28.9 °F 73% 30.14 in 10.0 mi NNE 8.1 mph 18.4 mph N/A   Overcast
11:53 AM 37.0 °F 29.3 °F 28.0 °F 70% 30.15 in 10.0 mi NNE 11.5 mph 20.7 mph N/A   Overcast
12:01 PM 37.4 °F 30.8 °F 26.6 °F 65% 30.12 in 10.0 mi NE 9.2 mph 20.7 mph N/A   Overcast
12:53 PM 37.0 °F 29.3 °F 26.1 °F 65% 30.16 in 10.0 mi NE 11.5 mph 23.0 mph N/A   Overcast
1:53 PM 39.0 °F 31.8 °F 26.1 °F 60% 30.16 in 10.0 mi NNE 11.5 mph 20.7 mph N/A   Overcast
2:38 PM 39.2 °F 33.0 °F 26.6 °F 61% 30.10 in 10.0 mi NE 9.2 mph 20.7 mph N/A   Mostly Cloudy
2:53 PM 39.0 °F 31.4 °F 27.0 °F 62% 30.14 in 10.0 mi NNE 12.7 mph 21.9 mph N/A   Overcast
3:53 PM 39.9 °F 33.9 °F 25.0 °F 55% 30.15 in 10.0 mi NNE 9.2 mph 24.2 mph N/A   Overcast
4:07 PM 39.2 °F 32.0 °F 24.8 °F 56% 30.11 in 10.0 mi NE 11.5 mph 25.3 mph N/A   Mostly Cloudy
4:53 PM 39.9 °F 32.1 °F 23.0 °F 51% 30.14 in 10.0 mi NE 13.8 mph 24.2 mph N/A   Partly Cloudy
5:53 PM 37.9 °F 28.9 °F 19.9 °F 48% 30.19 in 10.0 mi NE 16.1 mph 25.3 mph N/A   Clear
6:53 PM 36.0 °F 28.5 °F 17.1 °F 46% 30.21 in 10.0 mi NE 10.4 mph 20.7 mph N/A   Clear
7:53 PM 35.1 °F 29.3 °F 16.0 °F 46% 30.19 in 10.0 mi NNE 6.9 mph - N/A   Clear
8:53 PM 34.0 °F 29.8 °F 17.1 °F 50% 30.18 in 10.0 mi Variable 4.6 mph - N/A   Scattered Clouds
9:53 PM 33.1 °F 27.7 °F 19.0 °F 56% 30.19 in 10.0 mi NNE 5.8 mph - N/A   Scattered Clouds
10:53 PM 32.0 °F 26.4 °F 19.9 °F 61% 30.17 in 10.0 mi NE 5.8 mph - N/A   Clear
11:53 PM 32.0 °F 26.4 °F 19.9 °F 61% 30.21 in 10.0 mi NE 5.8 mph - N/A   Overcast